Flag for Turkey Weather past 2 weeks in Gaziantep, Turkey

Now
68 °F

Scattered clouds.


Feels Like: 68 °F
Forecast: 51 / 74 °F
Wind: No wind

Location: Gaziantep Airport


UV Index: 7 (High)

Visibility: N/A


Pressure: 29.92 "Hg

Humidity: 49%

Dew point: 48 °F

Location of GaziantepLocation

Historic Weather in Gaziantep

°F

Gaziantep temperature yesterday

Maximum temperature yesterday: 73 °F (at 2:50 PM)
Minimum temperature yesterday: 46 °F (at 5:20 AM)
Average temperature yesterday: 63 °F

Past Weeks' High & Low Weather Summary

 TemperatureHumidityPressure
High75 °F (Apr 6, 2:20 PM)94% (Apr 15, 11:20 PM)30.15 "Hg (Apr 15, 11:20 PM)
Low39 °F (Apr 11, 6:20 AM)15% (Apr 6, 4:20 PM)29.83 "Hg (Apr 18, 2:50 AM)
Average59 °F62%29.98 "Hg
* Reported Apr 6 11:20 AM — Apr 21 11:20 AM, Gaziantep, Weather by CustomWeather, © 2014

Note: Actual official high and low records may vary slightly from our data, if they occured in-between our weather recording intervals... More about our weather records

Advertising

Historic Weather Conditions — Data for Previous 24 hours

 ConditionsComfort  
Time TempWeatherWind HumidityBarometerVisibility
11:20 AM
Apr 21
66 °FBroken clouds.1 mph56%29.95 "HgN/A
10:50 AM66 °FBroken clouds.1 mph60%29.95 "HgN/A
10:20 AM64 °FBroken clouds.1 mph64%29.95 "HgN/A
9:50 AM66 °FBroken clouds.No wind60%29.95 "HgN/A
9:20 AM64 °FBroken clouds.No wind64%29.95 "HgN/A
8:50 AM61 °FBroken clouds.No wind68%29.95 "HgN/A
8:20 AM61 °FScattered clouds.No wind72%29.95 "HgN/A
7:50 AM59 °FScattered clouds.No wind77%29.95 "HgN/A
7:20 AM57 °FScattered clouds.No wind82%29.95 "HgN/A
6:50 AM55 °FScattered clouds.No wind88%29.95 "HgN/A
5:50 AM54 °FPassing clouds.No wind94%29.92 "HgN/A
5:20 AM54 °FPassing clouds.No wind94%29.92 "HgN/A
4:50 AM55 °FPassing clouds.2 mph88%29.92 "HgN/A
4:20 AM57 °FPassing clouds.No wind82%29.92 "HgN/A
3:50 AM55 °FPassing clouds.No wind88%29.95 "HgN/A
3:20 AM55 °FPassing clouds.No wind82%29.92 "HgN/A
2:50 AM57 °FPassing clouds.No wind82%29.92 "HgN/A
2:20 AM55 °FPassing clouds.1 mph82%29.92 "HgN/A
1:50 AM55 °FPassing clouds.No wind82%29.92 "HgN/A
1:20 AM57 °FPassing clouds.No wind82%29.92 "HgN/A
12:50 AM57 °FPassing clouds.No wind82%29.92 "HgN/A
11:50 PM
Apr 20
59 °FPassing clouds.13 mph77%29.92 "HgN/A
11:20 PM61 °FPassing clouds.10 mph72%29.92 "HgN/A
10:50 PM63 °FPassing clouds.15 mph68%29.92 "HgN/A
10:20 PM63 °FPassing clouds.5 mph64%29.92 "HgN/A
9:50 PM63 °FPassing clouds.No wind52%29.92 "HgN/A
9:20 PM63 °FPassing clouds.2 mph56%29.92 "HgN/A
8:50 PM61 °FPassing clouds.3 mph63%29.92 "HgN/A
8:20 PM64 °FPassing clouds.1 mph52%29.89 "HgN/A
7:50 PM66 °FScattered clouds.3 mph52%29.89 "HgN/A
7:20 PM70 °FScattered clouds.5 mph57%29.89 "HgN/A
6:50 PM70 °FScattered clouds.2 mph53%29.89 "HgN/A
6:20 PM72 °FScattered clouds.5 mph47%29.89 "HgN/A
5:50 PM73 °FScattered clouds.5 mph41%29.89 "HgN/A
5:20 PM73 °FScattered clouds.3 mph41%29.89 "HgN/A
4:50 PM73 °FScattered clouds.6 mph44%29.89 "HgN/A
4:20 PM73 °FScattered clouds.5 mph44%29.92 "HgN/A
3:50 PM73 °FScattered clouds.2 mph44%29.92 "HgN/A
3:20 PM72 °FScattered clouds.3 mph47%29.92 "HgN/A
2:50 PM73 °FScattered clouds.2 mph47%29.95 "HgN/A
2:20 PM72 °FScattered clouds.5 mph50%29.95 "HgN/A
1:50 PM70 °FScattered clouds.7 mph50%29.95 "HgN/A
1:20 PM70 °FScattered clouds.6 mph53%29.95 "HgN/A
12:50 PM70 °FScattered clouds.8 mph53%29.98 "HgN/A
12:20 PM68 °FScattered clouds.9 mph53%29.98 "HgN/A
Weather by CustomWeather, © 2014

See weather overview